KB2KRJ Weather Reports


time (UTC)temp
C
wind
direction
speed
KPH
gust
KPH
rain 1hr
cm
rain 24hr
cm
rain mn
cm
humidity
%
barometer
mb
20260508171526 8 242 1.6 6.4 0.00 0.03 0.03 67 1013.2
20260508170025 8 194 0.0 11.3 0.00 0.03 0.03 64 1013.0
20260508164525 9 167 1.6 6.4 0.00 0.03 0.03 67 1012.8
20260508163034 8 180 4.8 8.0 0.00 0.03 0.03 66 1013.1
20260508161530 8 234 1.6 9.7 0.00 0.03 0.03 68 1013.3
20260508160023 7 200 3.2 11.3 0.00 0.03 0.03 69 1013.3
20260508154523 8 200 3.2 12.9 0.00 0.03 0.03 63 1013.1
20260508153022 10 201 8.0 19.3 0.00 0.03 0.03 55 1012.5
20260508151521 11 158 0.0 6.4 0.00 0.03 0.03 50 1012.0
20260508150024 11 100 0.0 3.2 0.00 0.03 0.03 51 1011.8
20260508144520 11 100 1.6 8.0 0.00 0.03 0.03 49 1011.9
20260508143024 11 155 1.6 4.8 0.00 0.03 0.03 52 1012.1
20260508141515 11 146 3.2 6.4 0.00 0.03 0.03 54 1012.1
20260508140023 10 46 0.0 8.0 0.00 0.03 0.03 52 1012.4
20260508134517 10 244 1.6 6.4 0.00 0.03 0.03 56 1012.4
20260508133009 10 32 0.0 4.8 0.00 0.03 0.03 61 1012.2
20260508131505 9 26 0.0 8.0 0.00 0.03 0.03 62 1012.7
20260508130004 8 184 0.0 4.8 0.00 0.03 0.03 66 1012.8
20260508124600 8 182 1.6 4.8 0.00 0.03 0.03 67 1012.9
20260508123107 7 80 0.0 4.8 0.00 0.03 0.03 68 1012.7
20260508121557 7 39 0.0 3.2 0.00 0.03 0.03 69 1013.2
20260508120053 7 34 0.0 1.6 0.00 0.03 0.03 69 1013.2
20260508114553 6 38 0.0 6.4 0.00 0.03 0.03 69 1013.1
20260508113059 6 58 0.0 8.0 0.00 0.03 0.03 69 1012.9
20260508111546 5 22 0.0 3.2 0.00 0.03 0.03 68 1012.9
20260508110041 5 78 0.0 0.0 0.00 0.03 0.03 66 1012.8
20260508104542 5 78 0.0 0.0 0.00 0.03 0.03 63 1012.8
20260508103040 4 78 0.0 0.0 0.00 0.03 0.03 62 1012.6
20260508101533 4 78 0.0 0.0 0.00 0.03 0.03 62 1012.4
20260508100030 3 78 0.0 0.0 0.00 0.03 0.03 63 1012.2
20260508094529 3 78 0.0 0.0 0.00 0.03 0.03 63 1012.1
20260508093028 3 78 0.0 0.0 0.00 0.03 0.03 65 1011.9
20260508091530 3 78 0.0 0.0 0.00 0.03 0.03 67 1011.7
20260508090026 3 78 0.0 0.0 0.00 0.03 0.03 65 1011.5
20260508084522 3 78 0.0 0.0 0.00 0.03 0.03 65 1011.5
20260508083021 3 78 0.0 0.0 0.00 0.03 0.03 64 1011.5
20260508081548 2 78 0.0 0.0 0.00 0.03 0.03 63 1011.4
20260508080018 2 78 0.0 0.0 0.00 0.03 0.03 64 1011.4
20260508074517 2 78 0.0 0.0 0.00 0.03 0.03 64 1011.4
20260508073017 2 78 0.0 0.0 0.00 0.03 0.03 64 1011.2
20260508071534 2 78 0.0 0.0 0.00 0.03 0.03 63 1011.1
20260508070015 2 78 0.0 0.0 0.00 0.03 0.03 61 1011.1
20260508064514 2 78 0.0 0.0 0.00 0.03 0.03 60 1011.2
20260508063028 2 78 0.0 0.0 0.00 0.03 0.03 58 1011.0
20260508061512 2 78 0.0 1.6 0.00 0.03 0.03 58 1011.0
20260508060011 2 78 0.0 3.2 0.00 0.03 0.03 60 1010.8
20260508054509 2 78 0.0 0.0 0.00 0.03 0.03 61 1010.9
20260508053008 2 78 0.0 0.0 0.00 0.03 0.03 62 1010.8
20260508051505 2 78 0.0 0.0 0.03 0.03 0.03 62 1011.0
20260508050004 2 78 0.0 0.0 0.03 0.03 0.03 62 1011.1
20260508044503 2 78 0.0 0.0 0.03 0.03 0.03 64 1010.9
20260508043002 2 78 0.0 0.0 0.03 0.03 0.03 64 1011.0
20260508041559 2 78 0.0 0.0 0.00 0.00 0.00 66 1011.0
20260508034558 3 78 0.0 0.0 0.00 0.03 0.00 69 1011.1
20260508033053 3 78 0.0 0.0 0.00 0.03 0.00 69 1011.0
20260508031553 3 78 0.0 1.6 0.00 0.03 0.00 70 1011.1
20260508030050 3 78 0.0 0.0 0.00 0.03 0.00 70 1011.2
20260508024552 4 78 0.0 0.0 0.00 0.03 0.00 70 1011.2
20260508023046 4 78 0.0 0.0 0.00 0.03 0.00 69 1011.0
20260508021544 5 78 0.0 0.0 0.00 0.03 0.00 69 1011.0
20260508020042 5 78 0.0 0.0 0.00 0.03 0.00 70 1010.9
20260508014543 5 78 0.0 0.0 0.00 0.03 0.00 68 1010.9
20260508013045 6 78 0.0 0.0 0.00 0.03 0.00 65 1010.8
20260508011539 6 78 0.0 0.0 0.00 0.03 0.00 64 1010.6
20260508010038 7 78 0.0 0.0 0.00 0.03 0.00 64 1010.2
20260508004538 7 78 0.0 0.0 0.00 0.03 0.00 62 1010.0
20260508003038 8 78 0.0 1.6 0.00 0.03 0.00 60 1009.7
20260508001536 9 78 0.0 3.2 0.00 0.03 0.00 54 1009.6
20260508000039 10 79 0.0 3.2 0.00 0.03 0.00 48 1009.4
20260507234536 11 114 0.0 1.6 0.00 0.03 0.00 47 1009.3
20260507233042 11 114 0.0 4.8 0.00 0.03 0.00 47 1009.2
20260507231537 11 22 0.0 6.4 0.00 0.03 0.00 45 1009.0
20260507230036 11 45 0.0 8.0 0.00 0.03 0.00 45 1009.0
20260507224540 12 42 1.6 6.4 0.00 0.03 0.00 44 1008.9
20260507223034 12 37 0.0 9.7 0.00 0.03 0.00 45 1008.9
20260507221538 12 188 0.0 9.7 0.00 0.03 0.00 43 1008.9
20260507220033 12 21 1.6 12.9 0.00 0.03 0.00 44 1009.0
20260507214534 12 116 0.0 4.8 0.00 0.05 0.00 44 1008.9
20260507213041 12 349 1.6 8.0 0.00 0.05 0.00 43 1008.9
20260507211531 13 219 3.2 9.7 0.00 0.05 0.00 41 1008.8
20260507210030 13 77 1.6 8.0 0.00 0.05 0.00 41 1008.9
20260507204529 13 185 1.6 11.3 0.00 0.05 0.00 45 1008.8
20260507203037 13 180 1.6 8.0 0.00 0.05 0.00 44 1008.9
20260507201529 12 275 0.0 14.5 0.00 0.05 0.00 46 1009.1
20260507200027 13 180 0.0 11.3 0.00 0.05 0.00 46 1009.1
20260507194526 12 270 1.6 8.0 0.00 0.08 0.00 44 1009.2
20260507193025 12 178 0.0 8.0 0.00 0.08 0.00 50 1009.4
20260507191524 12 188 4.8 12.9 0.00 0.08 0.00 45 1009.6
20260507190024 13 187 3.2 11.3 0.00 0.08 0.00 44 1009.7
20260507184522 12 213 0.0 9.7 0.00 0.08 0.00 46 1009.8
20260507183022 12 202 3.2 11.3 0.00 0.08 0.00 43 1009.9
20260507181527 12 229 1.6 20.9 0.00 0.08 0.00 48 1010.0
20260507180025 12 167 4.8 9.7 0.00 0.08 0.00 46 1010.2
20260507174521 12 206 1.6 6.4 0.00 0.10 0.00 48 1010.1
20260507173030 12 207 3.2 12.9 0.00 0.10 0.00 45 1010.2